Lapse_Rate
7.1 6.5 6.5 6.5 6.5 6.5 6.5 6.5 6.5 6.5 6.5 6.5 6.5 6.5 6.5 7.2 7.4 7.3 7.6 7.8 8.0 8.2 8.6 8.1 6.3 6.2 6.4 6.3 6.7 6.6 6.0 6.4 7.5 8.0 7.6 7.6 8.3 8.2 7.4 7.9 6.5 6.4 6.6 6.9
6.5 6.5 6.5 6.5 6.5 6.5 6.5 6.5 6.5 6.5 6.5 6.5 6.5 6.5 6.5 6.9 7.0 7.4 7.5 7.7 7.9 8.2 8.5 8.7 8.8 8.9 9.1 9.0 9.0 9.0 8.5 8.4 9.6 9.8 9.9 9.9 9.7 9.2 7.9 6.5 6.2 6.8 6.9 7.7
6.5 6.5 6.6 6.5 6.5 6.5 6.5 6.5 6.5 6.5 6.5 6.5 6.5 6.5 6.5 6.6 7.2 7.5 7.7 7.9 8.1 8.2 8.3 8.6 8.7 8.8 8.8 8.8 9.0 9.5 9.6 9.7 9.8 9.3 8.8 8.1 7.8 7.6 8.9 8.9 9.3 7.7 7.4 8.3
6.5 6.7 6.5 6.5 6.5 6.5 6.5 6.5 6.5 6.5 6.5 6.5 6.5 6.5 6.5 6.5 6.5 6.9 7.4 7.8 8.1 8.3 8.6 8.6 8.7 8.9 9.1 9.1 9.4 9.6 9.6 8.9 7.7 8.7 9.2 8.8 9.3 9.3 8.7 9.2 9.8 9.8 8.0 8.0
6.5 6.5 6.5 6.5 6.5 6.5 6.5 6.5 6.5 6.5 6.5 6.5 6.5 6.5 6.5 6.5 6.5 6.5 7.2 7.7 8.1 8.4 8.5 8.6 8.8 9.0 9.2 7.9 8.6 8.5 8.2 7.9 8.0 7.8 8.1 9.3 8.6 9.3 9.7 9.8 9.4 9.9 9.7 9.7
6.5 7.2 6.6 6.5 6.5 6.5 6.5 6.5 6.5 6.5 6.5 6.5 6.5 6.5 6.5 6.5 6.5 6.5 7.2 7.7 8.0 8.4 8.6 8.8 9.0 9.2 9.2 9.3 8.2 8.7 8.4 7.7 7.6 7.3 7.4 7.5 7.9 8.7 9.4 9.5 9.6 9.8 10.0 9.9
6.5 6.5 6.6 6.8 6.5 6.5 6.5 6.5 6.5 6.5 6.5 6.5 6.5 6.5 6.5 6.5 6.5 6.7 6.9 7.7 8.1 8.4 8.5 8.7 8.8 9.0 9.0 9.1 9.2 9.0 8.9 7.9 7.7 7.5 7.6 7.5 7.7 8.1 9.4 9.0 9.6 9.5 9.7 9.9
6.5 6.5 6.5 6.5 6.5 6.5 6.5 6.5 6.5 6.5 6.5 6.5 6.5 6.5 6.5 6.5 7.1 7.5 7.8 8.0 8.2 8.4 8.5 8.7 8.8 9.0 9.0 9.1 9.2 9.2 9.0 8.6 8.3 8.0 7.9 8.2 8.1 9.1 9.7 9.3 9.2 9.8 9.9 9.9
6.5 6.5 6.5 6.5 6.5 6.5 6.5 6.5 6.5 6.5 6.5 6.5 6.5 6.5 6.5 6.5 6.5 7.1 7.4 7.7 8.0 8.3 8.5 8.6 8.8 9.0 9.1 9.2 9.0 9.2 9.2 9.0 8.6 8.4 7.7 7.5 8.2 7.9 8.4 9.0 9.7 9.8 9.7 9.8
6.5 6.5 6.5 6.5 6.7 6.6 6.5 6.5 6.5 6.5 6.5 6.5 6.5 6.5 6.5 6.5 6.5 6.5 6.8 7.4 7.9 8.3 8.5 8.6 8.8 8.9 9.2 9.2 8.3 8.1 9.5 9.3 8.4 7.7 8.3 8.3 8.3 8.5 8.5 8.8 9.3 9.2 9.2 9.4
6.5 6.5 6.5 6.5 6.5 6.5 6.5 6.5 6.5 6.5 6.5 6.5 6.5 6.5 6.5 6.5 6.5 6.5 7.0 7.6 7.9 8.1 8.4 8.6 8.8 9.0 9.1 9.1 8.2 8.5 8.7 7.9 7.4 9.3 8.5 8.4 8.2 8.2 8.5 9.4 9.8 9.8 9.1 9.7
6.5 6.5 6.5 6.5 6.5 6.5 6.5 6.5 6.5 6.5 6.5 6.5 6.5 6.5 6.5 6.5 6.7 7.1 7.2 7.7 8.1 8.3 8.5 8.7 8.9 8.9 8.9 8.9 9.3 9.1 8.3 9.0 9.3 8.6 8.3 8.2 8.1 8.3 9.5 9.7 9.9 9.6 9.8 9.7
6.5 6.5 6.5 6.5 6.5 6.5 6.5 6.5 6.5 6.5 6.5 6.5 6.5 6.5 6.5 6.8 6.8 7.3 7.3 7.7 8.0 8.2 8.5 8.7 8.8 8.8 8.9 9.0 8.9 8.2 8.2 8.1 8.9 8.9 9.1 9.0 9.1 9.4 9.6 9.8 9.9 9.9 10.0 10.0
6.3 6.5 6.5 6.5 6.5 6.5 6.5 6.5 6.5 6.5 6.5 6.5 6.5 6.5 6.5 6.5 6.5 7.0 7.4 7.8 8.1 8.2 8.3 8.6 8.7 8.7 8.9 9.0 8.7 8.8 6.8 8.7 8.7 9.2 9.4 9.5 9.4 9.5 9.7 9.8 9.9 9.9 9.9 9.9
6.5 6.5 6.5 6.5 6.5 6.5 6.5 6.5 6.5 6.5 6.5 6.5 6.5 6.5 6.5 6.5 6.5 7.0 7.5 7.8 7.9 8.0 8.2 8.4 8.6 8.8 8.9 9.0 9.0 7.3 9.3 8.4 8.5 8.4 9.4 9.5 9.5 9.7 9.8 9.8 9.9 9.9 9.8 10.0
6.5 6.5 6.5 6.5 6.5 6.5 6.5 6.5 6.5 6.5 6.5 6.5 6.5 6.5 6.5 7.1 7.4 7.2 7.5 7.7 7.7 7.9 8.2 8.5 8.6 8.8 8.8 8.9 7.6 9.1 9.1 8.6 8.3 8.3 9.2 9.4 9.3 9.4 9.5 9.7 9.7 9.8 9.9 9.9
6.5 6.5 6.5 6.5 6.5 6.5 6.5 6.5 6.5 6.5 6.5 6.5 6.5 6.5 6.6 6.5 6.9 7.2 7.5 7.7 7.7 8.0 8.2 8.4 8.6 8.7 8.8 9.0 9.0 9.1 9.2 8.4 7.8 8.2 8.3 8.5 8.6 9.2 9.6 9.7 9.8 9.8 9.7 9.8
6.5 6.5 6.5 6.5 6.5 6.5 6.5 6.5 6.5 6.5 6.5 6.5 6.5 6.5 6.7 6.8 7.3 7.7 8.0 7.9 7.9 8.1 8.3 8.6 8.8 8.8 9.0 9.1 9.3 9.3 8.5 7.7 7.7 7.9 8.0 8.5 9.4 9.4 9.6 9.7 9.7 9.7 9.8 9.7
6.6 6.5 6.5 6.5 6.5 6.5 6.5 6.5 6.5 6.5 6.5 6.5 6.5 6.5 7.0 7.3 7.5 7.4 7.6 8.1 8.2 8.4 8.6 8.8 9.0 9.0 8.9 9.1 8.9 7.8 7.6 7.5 7.4 7.6 8.5 9.1 9.0 9.4 9.6 9.5 9.5 9.8 9.7 9.7
6.5 6.5 6.5 6.5 6.5 6.5 6.5 6.5 7.1 6.7 6.5 6.7 6.8 6.6 6.9 7.2 6.5 6.5 7.0 6.4 7.9 8.7 8.8 8.9 9.0 8.7 8.3 7.7 7.1 7.6 7.7 7.0 7.4 7.3 7.6 8.0 9.2 9.5 9.5 9.5 9.6 9.8 9.8 9.7
6.5 6.5 6.5 6.5 6.5 6.5 6.5 6.8 7.2 6.5 6.5 7.0 7.2 7.2 7.2 6.6 7.2 7.4 6.1 8.0 8.3 8.7 8.8 8.9 7.8 8.6 8.0 7.9 7.7 7.1 6.8 7.2 7.1 7.3 7.7 8.2 8.8 9.2 9.2 9.6 9.8 9.8 9.7 9.6
6.5 6.5 6.5 6.5 6.5 6.5 7.0 6.8 6.5 6.7 7.2 7.3 7.4 7.5 7.4 7.6 7.5 7.7 6.2 7.3 8.3 8.6 8.7 8.4 8.2 6.9 6.1 7.4 7.1 7.9 7.8 7.1 6.9 7.2 7.4 8.3 8.6 8.6 9.5 9.5 9.7 9.7 9.6 9.4
6.5 6.5 6.5 6.5 6.5 6.8 7.4 7.1 7.6 7.6 7.4 7.5 7.6 7.9 7.8 7.7 7.8 7.9 7.8 7.3 8.3 8.7 8.7 6.4 5.6 5.9 7.1 7.2 6.5 7.6 8.1 6.8 6.8 6.8 7.3 8.2 8.8 9.6 9.6 9.5 9.5 9.5 9.6 9.3
6.5 7.0 6.5 6.5 6.6 6.8 7.3 7.7 7.9 8.0 7.8 8.1 8.2 8.1 8.2 7.9 8.1 8.1 8.3 8.3 8.5 8.8 8.3 8.5 6.3 7.6 6.8 6.0 6.2 7.1 7.0 6.6 6.4 6.6 7.6 8.7 8.3 6.0 8.1 9.6 9.6 9.5 9.3 9.2
6.7 6.7 6.5 6.5 6.7 7.1 7.4 7.7 7.8 7.9 8.0 7.8 8.2 8.0 8.0 8.2 8.1 8.3 8.3 8.5 8.6 6.3 5.5 6.2 7.1 7.8 6.7 6.2 6.7 6.6 6.4 6.4 6.2 6.6 7.5 8.8 8.6 8.5 8.6 8.2 8.8 9.0 9.7 9.4
7.1 6.5 6.5 6.5 6.9 6.9 7.1 7.8 8.1 7.9 8.0 8.2 8.1 8.1 8.0 7.7 8.2 8.4 8.5 8.5 7.1 6.0 5.5 6.7 7.2 6.3 6.2 6.3 6.0 6.0 6.0 5.5 5.7 6.0 7.6 9.1 9.1 9.3 9.0 8.7 8.6 6.8 5.9 5.9
Wind_Speed
6 5 7 11 6 3 5 7 12 8 4 5 5 7 5 6 8 10 10 10 10 8 6 7 7 8 10 11 12 13 13 12 8 7 7 7 6 5 4 6 5 5 5 5
6 5 3 6 5 5 6 10 8 6 3 4 9 7 6 5 5 6 9 9 9 9 9 9 10 11 11 12 12 12 12 12 8 7 6 4 5 4 5 5 5 5 5 5
8 7 3 6 6 6 3 6 10 5 7 2 10 7 8 4 5 6 5 6 8 10 11 12 12 11 11 12 13 13 13 11 7 6 5 5 6 6 4 3 3 6 6 7
5 3 4 7 5 2 6 3 9 12 13 8 8 8 10 8 7 9 10 11 12 14 13 12 13 14 14 12 11 12 10 9 6 3 5 5 4 3 4 2 3 4 5 8
3 6 7 6 3 2 3 7 10 8 7 5 11 8 9 9 11 14 13 13 13 13 13 14 13 12 12 11 10 9 10 10 9 9 7 6 6 5 4 3 4 6 9 11
5 2 2 3 5 2 11 12 8 4 3 6 3 8 8 10 17 16 16 14 15 14 14 13 12 11 10 9 9 9 11 11 11 11 11 10 8 6 5 6 6 7 9 12
7 4 5 5 10 8 7 10 5 6 5 7 1 6 12 4 5 18 19 18 17 16 15 13 14 12 12 11 11 11 12 12 10 11 10 9 9 7 6 8 7 10 9 9
9 6 5 2 3 5 9 7 4 5 6 6 3 7 3 1 6 13 18 18 18 16 14 13 12 11 11 12 12 12 11 11 10 10 10 8 8 5 5 6 7 7 8 9
5 3 4 2 2 2 5 7 3 2 0 4 6 6 10 4 8 13 20 19 19 17 15 13 12 12 13 13 12 11 11 11 9 8 7 6 5 5 5 7 8 8 11 12
4 4 2 5 2 7 3 8 3 3 3 5 3 7 6 7 11 16 20 20 19 17 15 13 12 13 12 12 11 10 10 10 8 6 5 4 4 4 5 7 9 11 12 15
5 2 5 3 6 6 4 4 1 1 2 3 3 1 3 1 9 16 20 20 19 17 16 14 13 12 12 12 11 11 10 9 8 5 4 3 3 4 5 6 9 10 13 14
3 2 4 6 3 2 3 4 7 4 4 0 2 4 3 1 3 10 16 18 17 16 15 14 14 14 13 12 11 10 9 8 6 5 4 2 2 3 4 7 9 12 11 13
6 4 4 5 5 5 7 7 4 5 1 6 3 2 3 3 5 8 13 14 15 16 16 15 15 14 14 13 11 10 7 5 7 5 3 1 2 4 5 7 9 11 11 10
3 3 5 8 0 1 6 11 11 9 4 4 9 9 8 7 7 8 12 14 17 17 17 16 15 15 14 13 12 9 7 8 6 5 4 4 5 5 6 7 9 10 10 10
3 5 4 1 1 3 4 9 14 15 13 8 7 11 8 7 9 9 8 12 15 17 18 18 17 15 15 14 11 9 7 7 6 5 6 6 6 7 8 8 9 10 10 9
1 3 2 4 2 2 7 10 12 16 15 16 17 18 13 8 5 8 11 14 16 17 18 18 17 16 15 14 11 8 8 7 5 6 6 6 7 8 9 9 9 11 10 9
3 5 4 2 1 2 6 15 17 12 13 14 13 13 5 6 9 10 12 14 16 17 18 18 17 15 13 13 9 8 8 6 6 5 6 7 7 8 10 9 10 11 10 9
5 4 1 1 2 3 1 1 3 15 16 15 16 7 6 4 3 5 9 13 16 17 17 16 13 12 12 9 8 7 6 6 4 5 5 6 8 9 10 10 10 10 9 9
1 3 3 3 4 7 10 4 4 6 6 6 15 12 5 2 3 9 11 13 14 15 14 13 11 12 10 9 8 7 6 4 4 5 6 7 7 10 10 10 10 10 8 8
4 3 2 3 3 4 3 3 0 2 7 4 3 4 8 6 4 5 10 13 13 13 13 12 12 10 11 9 9 9 7 4 4 4 6 7 9 10 10 10 11 9 8 7
2 0 4 4 4 6 1 1 3 3 3 4 2 5 9 7 7 3 1 9 12 12 13 12 13 11 10 7 7 7 4 4 3 4 6 8 8 8 9 10 9 8 8 6
5 6 3 2 3 4 4 5 3 3 2 4 4 5 9 11 4 4 2 6 11 13 12 12 10 9 8 7 6 4 3 2 4 5 7 8 7 7 7 8 7 7 7 6
3 3 1 6 1 2 7 6 2 3 7 7 7 6 7 11 10 7 6 7 10 13 12 12 11 8 9 6 2 5 2 3 5 6 8 7 6 7 7 7 8 7 6 5
4 4 3 2 2 8 9 10 11 11 12 11 11 11 10 12 11 9 7 8 9 10 9 9 9 7 5 4 4 4 4 4 6 8 7 6 6 6 8 7 7 6 6 5
1 7 4 5 11 8 8 8 6 6 6 8 7 7 8 9 8 6 7 9 10 9 8 7 2 2 2 2 2 2 5 6 6 6 6 6 5 5 7 7 7 7 8 5
6 5 4 5 7 4 7 4 5 7 7 8 8 7 6 5 0 6 8 9 8 9 8 3 2 3 2 3 3 4 4 5 6 6 6 5 6 6 6 7 7 10 11 4
Wind_Direction
201 208 215 183 209 33 128 140 142 120 101 130 138 135 132 146 171 179 178 178 175 170 138 130 131 133 138 141 148 156 159 167 172 171 151 156 152 119 111 95 76 69 63 58
177 144 100 116 139 144 145 158 141 119 128 236 170 133 127 154 162 193 186 187 177 159 145 137 137 138 140 139 146 152 153 163 168 151 148 144 138 132 111 112 106 87 57 30
211 112 153 146 133 152 138 195 168 184 160 202 184 176 172 137 151 154 173 159 168 161 145 135 131 129 133 138 143 143 135 132 117 117 136 126 126 140 159 132 118 64 27 1
80 103 150 133 138 266 182 198 149 154 182 199 214 220 186 173 161 169 157 153 142 138 135 134 136 136 130 121 122 125 121 114 102 136 97 70 45 79 58 81 67 7 5 343
101 151 146 149 85 169 67 164 145 163 203 207 194 253 115 178 192 180 168 159 155 151 150 145 138 131 125 128 126 123 120 112 105 97 95 98 89 92 78 38 338 320 319 319
101 85 25 89 62 183 141 135 129 159 209 240 233 251 188 186 214 183 177 173 164 159 153 147 141 142 138 133 128 129 118 108 103 95 86 83 80 57 21 1 336 336 325 323
156 114 116 153 118 139 224 181 181 224 210 249 92 249 262 221 202 187 180 172 168 163 160 158 161 160 151 140 134 127 118 110 100 93 91 86 80 56 20 355 347 333 332 328
204 176 169 141 268 205 198 237 228 239 224 260 175 248 257 130 181 191 181 174 170 171 168 169 161 157 146 146 140 130 123 117 109 100 92 75 57 45 25 9 354 334 330 325
179 132 128 65 169 239 158 218 46 148 50 272 255 239 247 191 198 194 183 177 179 180 175 165 158 152 151 147 140 134 122 114 106 100 93 87 68 56 28 4 353 344 333 328
166 155 175 137 174 65 286 126 182 211 234 243 204 272 262 183 186 190 187 188 187 183 178 168 160 156 150 142 134 133 127 124 122 121 122 111 90 57 26 3 350 340 336 331
168 235 151 203 215 198 152 189 73 86 294 280 294 250 52 291 194 195 197 196 191 187 183 174 165 157 152 150 149 146 143 143 163 147 154 140 95 48 12 348 341 337 329 327
143 154 177 196 118 312 272 205 196 236 180 169 324 290 145 181 236 207 204 200 197 192 185 176 168 164 162 166 164 162 165 167 151 162 183 156 58 4 332 333 335 333 323 320
175 195 165 168 175 190 226 193 186 116 127 206 189 263 170 205 221 218 218 196 198 192 182 178 174 172 174 175 171 179 174 154 186 200 217 258 281 295 311 323 328 323 320 316
189 190 241 235 311 246 196 196 197 204 200 207 236 265 208 223 225 207 214 199 197 192 183 181 182 181 182 181 183 178 187 195 198 220 251 275 283 290 301 308 317 323 319 313
224 232 211 210 125 215 252 222 200 212 228 224 267 249 270 249 237 229 203 196 197 193 189 190 189 187 187 188 186 207 193 191 210 237 262 286 279 276 287 298 315 323 312 301
147 197 187 213 204 256 256 239 228 228 244 254 263 268 273 253 253 205 199 196 201 200 198 194 196 194 194 191 205 194 194 200 212 240 265 287 281 282 289 300 308 312 304 297
154 148 164 234 2 266 282 240 224 222 227 240 249 261 167 202 223 221 210 207 207 205 201 201 200 199 196 197 203 202 197 195 215 249 277 286 283 280 292 292 294 310 308 299
132 125 88 117 203 228 352 146 276 241 254 242 257 251 257 273 244 262 220 210 213 210 206 204 201 196 196 197 196 200 192 200 230 263 282 287 288 289 291 289 290 307 299 296
42 148 129 180 214 315 279 196 207 208 279 263 250 262 243 205 251 240 221 220 220 213 209 204 197 189 178 186 179 187 191 208 227 273 292 296 295 293 296 292 292 298 293 287
67 63 257 150 221 247 45 61 165 226 275 28 250 238 197 184 239 280 186 208 211 208 201 194 179 169 171 158 158 186 185 206 263 279 285 291 293 294 294 293 290 291 278 280
130 75 212 182 240 280 294 184 176 240 12 13 253 192 186 208 249 8 243 201 201 196 189 175 168 165 154 148 177 175 183 242 263 269 288 293 297 297 297 294 287 276 275 276
187 168 182 138 206 268 156 144 225 13 354 317 284 249 233 246 322 282 265 201 191 183 167 166 144 138 101 149 196 232 243 239 260 286 292 294 297 297 298 290 279 268 267 266
230 228 239 218 245 117 197 273 322 293 285 296 295 304 261 259 255 242 217 180 176 172 151 144 134 124 149 181 206 253 277 254 283 289 288 292 291 292 303 286 277 277 259 256
213 183 236 249 183 243 248 261 270 271 273 289 286 282 281 269 271 240 212 171 162 145 138 117 101 160 169 151 207 272 284 276 286 286 289 298 304 321 304 289 265 263 261 252
35 166 206 249 278 273 260 250 279 301 300 290 289 290 298 297 285 240 190 163 138 116 110 89 89 196 193 204 253 262 278 289 280 275 285 292 297 299 303 286 285 278 264 245
187 195 199 256 321 293 311 34 341 312 331 339 327 324 1 329 305 144 122 112 102 85 70 84 210 256 252 275 284 278 280 265 260 272 278 293 305 305 292 292 290 228 242 234